Roatan, Honduras

11:38 AM CST on April 19, 2018 (GMT -0600)
Roatan International

Weather History for MHRO - February, 2014

Change the Weather History Date:

Friday, February 28, 2014

  Actual Average Record
Temperature  
Mean Temperature 79 °F -  
Max Temperature 88 °F 83 °F 89 °F (1998)
Min Temperature 70 °F 74 °F 62 °F (2016)
Cooling Degree Days 14    
Growing Degree Days 29 (Base 50)    
Moisture  
Dew Point 72 °F    
Average Humidity 72    
Maximum Humidity 94    
Minimum Humidity 56    
Precipitation  
Precipitation 0.00 in - - ()
Sea Level Pressure  
Sea Level Pressure 29.95 in    
Wind  
Wind Speed 4 mph ()    
Max Wind Speed 7 mph    
Max Gust Speed -    
Visibility 6.8 miles    
Events      
Averages and records for this station are not official NWS values.
T = Trace of Precipitation, MM = Missing Value Source: Averaged Metar Reports

Daily Weather History Graph

Daily Weather History Graph

Search for Another Location

Airport or City:

Astronomy

Feb. 28, 2014 Rise Set
Actual Time 6:04 AM CST 5:52 PM CST
Civil Twilight 5:42 AM CST 6:14 PM CST
Nautical Twilight 5:17 AM CST 6:39 PM CST
Astronomical Twilight 4:52 AM CST 7:04 PM CST
Moon 5:16 AM CST (2/28) 5:26 PM CST (2/28)
Length of Visible Light 12h 31m
Length of Day
11h 48m
Waning Crescent, 1% of the Moon is Illuminated
Feb 28
Waning Crescent
Mar 1
New
Mar 8
First Quarter
Mar 16
Full
Mar 23
Last Quarter

Hourly Weather History & Observations

Time (CST) Temp. Heat Index Dew Point Humidity Pressure Visibility Wind Dir Wind Speed Gust Speed Precip Events Conditions
6:00 AM 74 °F - 71 °F 87% 29.90 in 9 mi North 4.6 mph - -   Haze
6:00 AM 73.4 °F - 71.6 °F 94% 29.89 in 6.2 mi North 4.6 mph - N/A   Partly Cloudy
7:00 AM 80.6 °F 86.2 °F 75.2 °F 84% 29.95 in 6.2 mi East 4.6 mph - N/A   Scattered Clouds
8:00 AM 80.6 °F 86.2 °F 75.2 °F 84% 29.95 in 6.2 mi East 4.6 mph - N/A   Scattered Clouds
9:00 AM 81 °F - 73 °F 72% 29.99 in 7 mi ESE 4.6 mph - -   Haze
9:00 AM 80.6 °F 85.4 °F 73.4 °F 79% 29.98 in 6.2 mi ESE 4.6 mph - N/A   Scattered Clouds
10:00 AM 84.2 °F 90.9 °F 73.4 °F 70% 29.98 in 6.2 mi SE 4.6 mph - N/A   Scattered Clouds
11:00 AM 84.2 °F 90.9 °F 73.4 °F 70% 29.98 in 6.2 mi SSW 6.9 mph - N/A   Scattered Clouds
12:00 PM 85 °F - 73 °F 59% 29.97 in 9 mi NW 3.5 mph - -   Haze
12:00 PM 84.2 °F 90.9 °F 73.4 °F 70% 29.98 in 6.2 mi NW 3.5 mph - N/A   Scattered Clouds
1:00 PM 84.2 °F 89.6 °F 71.6 °F 66% 29.95 in 6.2 mi WNW 6.9 mph - N/A   Scattered Clouds
2:00 PM 86.0 °F 93.4 °F 73.4 °F 66% 29.92 in 6.2 mi NW 5.8 mph - N/A   Partly Cloudy
3:00 PM 85 °F - 72 °F 56% 29.92 in 9 mi North 6.9 mph - -   Haze
3:00 PM 84.2 °F 89.6 °F 71.6 °F 66% 29.92 in 6.2 mi North 6.9 mph - N/A   Partly Cloudy
4:00 PM 84.2 °F 89.6 °F 71.6 °F 66% 29.92 in 6.2 mi NNW 6.9 mph - N/A   Partly Cloudy
5:00 PM 84.2 °F 89.6 °F 71.6 °F 66% 29.92 in 6.2 mi NNW 6.9 mph - N/A   Partly Cloudy
6:00 PM 82 °F - 72 °F 63% 29.94 in 9 mi NNE 3.5 mph - -   Haze
6:00 PM 82.4 °F 87.2 °F 71.6 °F 70% 29.92 in 6.2 mi NNE 3.5 mph - N/A   Partly Cloudy
7:00 PM 78.8 °F - 71.6 °F 78% 29.95 in 6.2 mi Calm Calm - N/A   Partly Cloudy
8:00 PM 77.0 °F - 69.8 °F 78% 29.98 in 6.2 mi Calm Calm - N/A   Partly Cloudy